TimeEDT,TemperatureF,Dew PointF,Humidity,Sea Level PressureIn,VisibilityMPH,Wind Direction,Wind SpeedMPH,Gust SpeedMPH,PrecipitationIn,Events,Conditions,WindDirDegrees,DateUTC
12:15 AM,67.1,56.8,70,29.76,10.0,SW,8.1,-,N/A,,Mostly Cloudy,220,2012-10-15 04:15:00
12:35 AM,64.8,58.6,81,29.76,10.0,SW,9.2,20.7,N/A,Rain,Light Rain,230,2012-10-15 04:35:00
12:55 AM,62.2,59.0,89,29.76,3.0,West,12.7,27.6,N/A,Rain,Heavy Rain,270,2012-10-15 04:55:00
1:35 AM,61.9,59.5,92,29.75,3.0,WSW,16.1,27.6,N/A,Rain,Heavy Rain,250,2012-10-15 05:35:00
1:55 AM,61.5,58.6,90,29.75,10.0,WSW,12.7,21.9,N/A,Rain,Light Rain,240,2012-10-15 05:55:00
2:15 AM,61.2,58.1,90,29.75,10.0,SW,11.5,16.1,N/A,,Overcast,230,2012-10-15 06:15:00
2:35 AM,61.3,57.7,88,29.76,10.0,SW,13.8,-,N/A,,Overcast,230,2012-10-15 06:35:00
3:15 AM,61.0,57.9,90,29.78,10.0,West,9.2,-,N/A,Rain,Light Rain,280,2012-10-15 07:15:00
3:35 AM,60.4,55.6,84,29.77,10.0,WNW,8.1,-,N/A,,Overcast,290,2012-10-15 07:35:00
4:15 AM,59.5,55.4,86,29.77,10.0,WSW,8.1,-,N/A,,Mostly Cloudy,250,2012-10-15 08:15:00
4:35 AM,59.2,55.4,87,29.78,10.0,West,5.8,-,N/A,,Overcast,270,2012-10-15 08:35:00
4:55 AM,58.6,54.9,87,29.78,10.0,Calm,Calm,-,N/A,Rain,Light Rain,0,2012-10-15 08:55:00
5:15 AM,58.3,54.5,87,29.79,10.0,WNW,5.8,-,N/A,,Overcast,300,2012-10-15 09:15:00
5:35 AM,57.7,52.9,84,29.80,10.0,WNW,8.1,-,N/A,,Overcast,290,2012-10-15 09:35:00
5:55 AM,57.2,52.2,83,29.80,10.0,West,5.8,-,N/A,,Overcast,280,2012-10-15 09:55:00
6:15 AM,56.7,51.8,84,29.81,10.0,WNW,8.1,-,N/A,,Overcast,300,2012-10-15 10:15:00
6:35 AM,56.1,50.9,83,29.81,10.0,WNW,5.8,-,N/A,,Overcast,300,2012-10-15 10:35:00
6:55 AM,55.9,51.3,84,29.80,10.0,Calm,Calm,-,N/A,,Overcast,0,2012-10-15 10:55:00
7:15 AM,54.9,51.3,88,29.81,10.0,Calm,Calm,-,N/A,,Mostly Cloudy,0,2012-10-15 11:15:00
7:35 AM,54.9,51.8,89,29.81,10.0,West,3.5,-,N/A,,Mostly Cloudy,260,2012-10-15 11:35:00
7:55 AM,55.4,51.3,86,29.81,10.0,Calm,Calm,-,N/A,,Overcast,0,2012-10-15 11:55:00
8:15 AM,55.4,50.5,84,29.81,10.0,WSW,3.5,-,N/A,,Overcast,240,2012-10-15 12:15:00
8:35 AM,55.0,50.9,86,29.82,10.0,WSW,3.5,-,N/A,,Mostly Cloudy,240,2012-10-15 12:35:00
8:55 AM,54.7,51.3,88,29.82,10.0,WSW,3.5,-,N/A,,Mostly Cloudy,250,2012-10-15 12:55:00
9:15 AM,55.4,51.1,85,29.82,10.0,WSW,3.5,-,N/A,,Mostly Cloudy,250,2012-10-15 13:15:00
9:35 AM,55.4,50.7,84,29.83,10.0,West,4.6,-,N/A,,Overcast,260,2012-10-15 13:35:00
9:55 AM,55.9,50.0,80,29.84,10.0,West,6.9,-,N/A,,Mostly Cloudy,260,2012-10-15 13:55:00
10:15 AM,55.9,50.0,80,29.84,10.0,WSW,4.6,-,N/A,,Mostly Cloudy,250,2012-10-15 14:15:00
10:55 AM,55.6,50.2,82,29.84,10.0,WSW,3.5,-,N/A,,Overcast,250,2012-10-15 14:55:00
11:15 AM,55.8,50.2,82,29.84,10.0,West,4.6,-,N/A,,Overcast,270,2012-10-15 15:15:00
11:35 AM,56.3,50.5,81,29.85,10.0,WSW,11.5,-,N/A,,Overcast,240,2012-10-15 15:35:00
11:55 AM,57.7,50.4,76,29.85,10.0,WSW,10.4,-,N/A,,Mostly Cloudy,250,2012-10-15 15:55:00
12:15 PM,58.3,48.6,70,29.85,10.0,WSW,17.3,23.0,N/A,,Mostly Cloudy,240,2012-10-15 16:15:00
12:35 PM,56.5,47.5,72,29.85,10.0,WSW,18.4,23.0,N/A,,Overcast,250,2012-10-15 16:35:00
12:55 PM,55.4,47.1,74,29.86,10.0,WSW,11.5,24.2,N/A,,Overcast,240,2012-10-15 16:55:00
1:15 PM,53.8,46.4,76,29.86,10.0,West,13.8,-,N/A,,Overcast,260,2012-10-15 17:15:00
1:35 PM,54.5,45.7,72,29.86,10.0,WSW,13.8,-,N/A,,Overcast,250,2012-10-15 17:35:00
1:55 PM,55.4,45.3,69,29.86,10.0,West,12.7,18.4,N/A,,Overcast,260,2012-10-15 17:55:00
2:15 PM,56.3,45.5,67,29.86,10.0,WSW,9.2,-,N/A,,Mostly Cloudy,250,2012-10-15 18:15:00
2:35 PM,55.8,41.0,58,29.86,10.0,West,11.5,23.0,N/A,,Overcast,260,2012-10-15 18:35:00
2:55 PM,56.1,41.9,59,29.86,10.0,WSW,17.3,23.0,N/A,,Mostly Cloudy,250,2012-10-15 18:55:00
3:15 PM,54.7,42.1,62,29.87,10.0,West,16.1,25.3,N/A,,Overcast,260,2012-10-15 19:15:00
3:35 PM,54.5,42.1,63,29.88,10.0,WNW,9.2,18.4,N/A,,Overcast,290,2012-10-15 19:35:00
4:15 PM,52.2,44.8,76,29.89,10.0,West,6.9,-,N/A,,Light Drizzle,280,2012-10-15 20:15:00
4:35 PM,52.7,44.4,73,29.89,10.0,WNW,5.8,-,N/A,,Overcast,290,2012-10-15 20:35:00
4:55 PM,52.9,44.1,72,29.90,10.0,West,6.9,-,N/A,,Overcast,280,2012-10-15 20:55:00
5:15 PM,53.1,44.2,72,29.90,10.0,West,9.2,-,N/A,,Overcast,280,2012-10-15 21:15:00
5:35 PM,53.4,44.1,71,29.91,10.0,WNW,4.6,-,N/A,,Overcast,290,2012-10-15 21:35:00
5:55 PM,53.1,43.9,71,29.91,10.0,West,4.6,-,N/A,,Overcast,280,2012-10-15 21:55:00
6:15 PM,53.1,44.6,73,29.91,10.0,Calm,Calm,-,N/A,,Overcast,0,2012-10-15 22:15:00
6:35 PM,52.9,44.6,73,29.91,10.0,West,3.5,-,N/A,,Overcast,260,2012-10-15 22:35:00
6:55 PM,52.3,44.1,73,29.91,10.0,SW,3.5,-,N/A,,Mostly Cloudy,220,2012-10-15 22:55:00
7:15 PM,50.9,43.7,76,29.92,10.0,Calm,Calm,-,N/A,,Scattered Clouds,0,2012-10-15 23:15:00
7:35 PM,48.7,43.2,81,29.92,10.0,Calm,Calm,-,N/A,,Clear,0,2012-10-15 23:35:00
7:55 PM,46.6,42.8,87,29.93,10.0,Calm,Calm,-,N/A,,Clear,0,2012-10-15 23:55:00
8:15 PM,46.0,43.0,89,29.93,10.0,Calm,Calm,-,N/A,,Clear,0,2012-10-16 00:15:00
8:35 PM,45.0,42.3,90,29.94,10.0,Calm,Calm,-,N/A,,Clear,0,2012-10-16 00:35:00
8:55 PM,43.5,41.2,91,29.95,10.0,Calm,Calm,-,N/A,,Scattered Clouds,0,2012-10-16 00:55:00
9:15 PM,44.4,42.4,93,29.95,10.0,Calm,Calm,-,N/A,,Mostly Cloudy,0,2012-10-16 01:15:00
9:35 PM,45.3,43.2,92,29.95,10.0,Calm,Calm,-,N/A,,Mostly Cloudy,0,2012-10-16 01:35:00
9:55 PM,44.6,42.4,92,29.95,10.0,Calm,Calm,-,N/A,,Scattered Clouds,0,2012-10-16 01:55:00
10:15 PM,42.4,40.6,93,29.95,10.0,Calm,Calm,-,N/A,,Clear,0,2012-10-16 02:15:00
10:35 PM,42.1,40.6,95,29.95,10.0,Calm,Calm,-,N/A,,Clear,0,2012-10-16 02:35:00
11:15 PM,41.0,39.7,95,29.95,10.0,Calm,Calm,-,N/A,,Clear,0,2012-10-16 03:15:00
11:35 PM,40.3,39.2,96,29.95,5.0,WSW,3.5,-,N/A,,Clear,250,2012-10-16 03:35:00
11:55 PM,39.9,38.7,95,29.96,7.0,Calm,Calm,-,N/A,,Clear,0,2012-10-16 03:55:00